Location: ??????????
(54.4061°N, 22.6114°E)
Time: 14:47:46
(UTC+00:00)

ARGOS - Pass Details

Date: 23 October 2019
Orbit: 820 x 835 km, 98.5° (Epoch: 16 November)

Event Time Altitude Azimuth Distance (km) Brightness Sun altitude
Exits shadow 18:27:50 75° 225° (SW) 872 3.2 -28.5°
Maximum altitude 18:28:05 76° 255° (WSW) 865 3.2 -28.5°
Drops below altitude 10° 18:33:34 10° 342° (NNW) 2,460 6.1 -29.2°
Sets 18:35:57 0° 344° (NNW) 3,398 6.9 -29.6°
